Weather History for North Bend, OR

Change the Weather History Date:

Wednesday, August 14, 2013

  Actual Average Record
Temperature  
Mean Temperature 66 °F 59 °F  
Max Temperature 77 °F 65 °F 79 °F (1927)
Min Temperature 54 °F 53 °F 44 °F (1964)
Degree Days  
Heating Degree Days 0 6  
Month to date heating degree days 31 84  
Since 1 June heating degree days 296 548  
Since 1 July heating degree days 126 281  
Cooling Degree Days 1 0  
Month to date cooling degree days 1 0  
Year to date cooling degree days 5 0  
Since 1 June cooling degree days 1 0  
Growing Degree Days 14 (Base 50)    
Moisture  
Dew Point 58 °F    
Average Humidity 83    
Maximum Humidity 100    
Minimum Humidity 46    
Precipitation  
Precipitation 0.00 in 0.02 in 0.60 in (1976)
Month to date precipitation 0.05 0.20  
Year to date precipitation 17.54 36.82  
Sea Level Pressure  
Sea Level Pressure 29.99 in    
Wind  
Wind Speed 7 mph (SSW)    
Max Wind Speed 16 mph    
Max Gust Speed 22 mph    
Visibility 10 miles    
Events      
T = Trace of Precipitation, MM = Missing Value Source: NWS Daily Summary

Daily Weather History Graph

Daily Weather History Graph

Search for Another Location

Airport:

Trip Planner

Search our weather history database for the weather conditions in past years. The results will help you decide how hot, cold, wet, or windy it might be!

Date:

Astronomy

Aug. 14, 2013 Rise Set
Actual Time 6:21 AM PDT 8:21 PM PDT
Civil Twilight 5:50 AM PDT 8:51 PM PDT
Nautical Twilight 5:12 AM PDT 9:29 PM PDT
Astronomical Twilight 4:30 AM PDT 10:11 PM PDT
Moon 2:41 PM PDT (8/14) No Moon Set
Length of Visible Light 15h 01m
Length of Day
13h 59m
First Quarter, 54% of the Moon is Illuminated
Aug 14
First Quarter
Aug 20
Full
Aug 28
Last Quarter
Sep 5
New
Sep 12
First Quarter

Hourly Weather History & Observations

Time (PDT) Temp. Dew Point Humidity Pressure Visibility Wind Dir Wind Speed Gust Speed Precip Events Conditions
12:15 AM 55.4 °F 55.4 °F 100% 30.04 in 10.0 mi SSE 3.5 mph - N/A   Overcast
12:35 AM 55.4 °F 55.4 °F 100% 30.03 in 10.0 mi SSE 5.8 mph - N/A   Scattered Clouds
12:55 AM 55.4 °F 55.4 °F 100% 30.04 in 10.0 mi SSE 3.5 mph - N/A   Mostly Cloudy
1:15 AM 55.4 °F 53.6 °F 94% 30.03 in 10.0 mi SE 4.6 mph - N/A   Overcast
1:35 AM 53.6 °F 53.6 °F 100% 30.03 in 10.0 mi Calm Calm - N/A   Scattered Clouds
1:55 AM 55.4 °F 55.4 °F 100% 30.02 in 8.0 mi SSE 4.6 mph - N/A   Mostly Cloudy
2:15 AM 55.4 °F 53.6 °F 94% 30.02 in 8.0 mi SSE 4.6 mph - N/A   Mostly Cloudy
2:35 AM 53.6 °F 53.6 °F 100% 30.01 in 10.0 mi SE 5.8 mph - N/A   Scattered Clouds
2:55 AM 55.4 °F 55.4 °F 100% 30.00 in 10.0 mi SE 6.9 mph - N/A   Clear
3:15 AM 55.4 °F 55.4 °F 100% 30.00 in 10.0 mi SSE 3.5 mph - N/A   Clear
3:35 AM 55.4 °F 55.4 °F 100% 30.01 in 10.0 mi Calm Calm - N/A   Clear
3:55 AM 55.4 °F 53.6 °F 94% 30.01 in 10.0 mi ESE 3.5 mph - N/A   Clear
4:15 AM 53.6 °F 53.6 °F 100% 30.00 in 10.0 mi SE 3.5 mph - N/A   Clear
4:35 AM 53.6 °F 53.6 °F 100% 29.99 in 10.0 mi SE 5.8 mph - N/A   Clear
4:55 AM 53.6 °F 53.6 °F 100% 29.99 in 10.0 mi SE 6.9 mph - N/A   Clear
5:15 AM 53.6 °F 53.6 °F 100% 29.99 in 10.0 mi SSE 5.8 mph - N/A   Clear
5:35 AM 53.6 °F 51.8 °F 94% 30.00 in 10.0 mi SSE 6.9 mph - N/A   Clear
5:55 AM 53.6 °F 51.8 °F 94% 30.00 in 10.0 mi SSE 3.5 mph - N/A   Clear
6:15 AM 53.6 °F 51.8 °F 94% 30.00 in 10.0 mi SE 5.8 mph - N/A   Clear
6:35 AM 55.4 °F 55.4 °F 100% 29.99 in 10.0 mi SE 8.1 mph - N/A   Clear
6:55 AM 55.4 °F 55.4 °F 100% 29.99 in 10.0 mi SSE 5.8 mph - N/A   Clear
7:15 AM 55.4 °F 53.6 °F 94% 29.99 in 10.0 mi SSE 8.1 mph - N/A   Clear
7:35 AM 55.4 °F 53.6 °F 94% 29.99 in 10.0 mi SSE 6.9 mph - N/A   Clear
7:55 AM 55.4 °F 55.4 °F 100% 30.00 in 10.0 mi South 5.8 mph - N/A   Clear
8:15 AM 57.2 °F 55.4 °F 94% 30.00 in 10.0 mi SSE 6.9 mph - N/A   Clear
8:35 AM 60.8 °F 55.4 °F 82% 30.00 in 10.0 mi SE 5.8 mph - N/A   Clear
8:55 AM 62.6 °F 55.4 °F 77% 30.00 in 10.0 mi SE 3.5 mph - N/A   Clear
9:15 AM 60.8 °F 55.4 °F 82% 30.00 in 10.0 mi Calm Calm - N/A   Clear
9:35 AM 62.6 °F 55.4 °F 77% 30.00 in 10.0 mi Calm Calm - N/A   Clear
9:55 AM 64.4 °F 55.4 °F 73% 30.00 in 10.0 mi Calm Calm - N/A   Clear
10:15 AM 64.4 °F 55.4 °F 73% 30.00 in 10.0 mi WNW 3.5 mph - N/A   Clear
10:35 AM 64.4 °F 55.4 °F 73% 30.00 in 10.0 mi WNW 10.4 mph - N/A   Clear
10:55 AM 64.4 °F 55.4 °F 73% 30.00 in 10.0 mi West 8.1 mph - N/A   Clear
11:15 AM 62.6 °F 55.4 °F 77% 30.00 in 10.0 mi West 9.2 mph - N/A   Clear
11:35 AM 64.4 °F 55.4 °F 73% 30.00 in 10.0 mi WNW 5.8 mph - N/A   Clear
11:55 AM 68.0 °F 55.4 °F 64% 30.00 in 10.0 mi WNW 8.1 mph - N/A   Clear
12:55 PM 75.2 °F 53.6 °F 47% 29.99 in 10.0 mi SSW 10.4 mph - N/A   Clear
1:15 PM 75.2 °F 55.4 °F 50% 29.98 in 10.0 mi West 15.0 mph - N/A   Clear
1:35 PM 75.2 °F 55.4 °F 50% 29.98 in 10.0 mi WSW 11.5 mph - N/A   Clear
1:55 PM 75.2 °F 57.2 °F 53% 29.98 in 10.0 mi WSW 12.7 mph - N/A   Clear
2:15 PM 75.2 °F 57.2 °F 53% 29.98 in 10.0 mi WSW 15.0 mph - N/A   Clear
2:35 PM 73.4 °F 57.2 °F 57% 29.98 in 10.0 mi WSW 12.7 mph - N/A   Clear
2:55 PM 73.4 °F 57.2 °F 57% 29.98 in 10.0 mi WSW 16.1 mph - N/A   Clear
3:15 PM 75.2 °F 59.0 °F 57% 29.98 in 10.0 mi WSW 12.7 mph 21.9 mph N/A   Clear
3:35 PM 75.2 °F 62.6 °F 65% 29.98 in 10.0 mi WSW 11.5 mph 20.7 mph N/A   Partly Cloudy
3:55 PM 75.2 °F 62.6 °F 65% 29.98 in 10.0 mi WSW 11.5 mph - N/A   Partly Cloudy
4:15 PM 73.4 °F 64.4 °F 73% 29.98 in 10.0 mi WSW 10.4 mph 18.4 mph N/A   Clear
4:35 PM 75.2 °F 64.4 °F 69% 29.98 in 10.0 mi WSW 11.5 mph - N/A   Clear
4:55 PM 73.4 °F 64.4 °F 73% 29.98 in 10.0 mi WSW 9.2 mph - N/A   Clear
5:15 PM 71.6 °F 64.4 °F 78% 29.98 in 10.0 mi WSW 9.2 mph - N/A   Clear
5:35 PM 73.4 °F 64.4 °F 73% 29.98 in 10.0 mi WSW 5.8 mph - N/A   Clear
5:55 PM 71.6 °F 64.4 °F 78% 29.97 in 10.0 mi SSW 8.1 mph - N/A   Mostly Cloudy
6:15 PM 73.4 °F 64.4 °F 73% 29.97 in 10.0 mi West 8.1 mph - N/A   Partly Cloudy
6:35 PM 64.4 °F 60.8 °F 88% 29.97 in 10.0 mi West 6.9 mph - N/A   Clear
6:55 PM 64.4 °F 60.8 °F 88% 29.97 in 10.0 mi WNW 4.6 mph - N/A   Mostly Cloudy
7:15 PM 69.8 °F 62.6 °F 78% 29.97 in 10.0 mi SW 8.1 mph - N/A   Scattered Clouds
7:35 PM 71.6 °F 64.4 °F 78% 29.97 in 10.0 mi SSW 4.6 mph - N/A   Mostly Cloudy
7:55 PM 69.8 °F 64.4 °F 83% 29.97 in 10.0 mi SSW 5.8 mph - N/A   Overcast
8:15 PM 64.4 °F 60.8 °F 88% 29.97 in 10.0 mi West 5.8 mph - N/A   Overcast
8:35 PM 64.4 °F 60.8 °F 88% 29.97 in 10.0 mi Calm Calm - N/A   Overcast
8:55 PM 69.8 °F 64.4 °F 83% 29.97 in 10.0 mi South 8.1 mph - N/A   Mostly Cloudy
9:15 PM 69.8 °F 64.4 °F 83% 29.97 in 10.0 mi SSW 6.9 mph - N/A   Mostly Cloudy
9:35 PM 69.8 °F 64.4 °F 83% 29.97 in 10.0 mi South 8.1 mph - N/A   Overcast
9:55 PM 69.8 °F 64.4 °F 83% 29.97 in 10.0 mi SSE 4.6 mph - N/A   Mostly Cloudy
10:15 PM 68.0 °F 64.4 °F 88% 29.97 in 10.0 mi SSE 5.8 mph - N/A   Scattered Clouds
10:35 PM 68.0 °F 64.4 °F 88% 29.98 in 10.0 mi SSE 4.6 mph - N/A   Mostly Cloudy
10:55 PM 66.2 °F 64.4 °F 94% 29.98 in 10.0 mi West 4.6 mph - N/A   Overcast
11:15 PM 62.6 °F 60.8 °F 94% 29.98 in 10.0 mi West 6.9 mph - N/A   Overcast
11:35 PM 62.6 °F 59.0 °F 88% 29.98 in 10.0 mi WNW 5.8 mph - N/A   Overcast
11:55 PM 60.8 °F 59.0 °F 94% 29.98 in 10.0 mi NW 3.5 mph - N/A   Overcast